|
2007 XO |
| ephemeris |
date |
magn |
radius |
delta |
ra |
dec |
elong |
phase |
| Today | 14 Jun 2026 | 27.8 | 0.694 AU | 0.506 AU | 08h14m | +22°24' | 38.3° | 114.8° |
2007 XO - 2026-06-14
astro.vanbuitenen.nl
The interactive orbit chart above shows the body's path through the solar system and its position at the given date.
Green and blue lines are shown perpendicular to the ecliptic plane: Green if the path is above the ecliptic plane, blue if it is below.
(Left-click and drag to rotate the view; Right-click and drag to move the view; Use scroll wheel to zoom in our out.)
The orbital elements of 2007 XO are:
e (Eccentricity) : 0.5159623
a (Semimajor axis) : 1.1953586
i (Inclination) : 7.54302
Ω (Longitude of ascending node) : 69.78560
ω (Argument of perihelion) : 106.67031
M (Mean anomaly) : 301.50105
Epoch : 2007 Nov 16
L (Longitude of perihelion) : -3.40675
B (Latitude of perihelion) : 7.22427
P (Orbital period in years) : 1.31
The light curve chart below shows the estimated development of the minor planet's magnitude.
The all-sky chart below shows the path of the minor planet over the same period as the light curve. The current position is marked yellow.
The following chart shows the path of the minor planet in the next few days. The field of view is optimized for (~10x50) binoculars and finderscopes.
Ephemerides:
Date Time RA (2000) DEC (2000) delta radius elong phase PA magn
2026-06-14 00:00 UT 08 14 45.0 +22 24 37 0.506 0.694 38.3 114.8 100 27.8
2026-06-14 15:49 UT 08 18 04.9 +22 04 12 0.497 0.699 38.5 115.2 100 27.8
2026-06-15 00:00 UT 08 19 49.0 +21 53 19 0.492 0.702 38.6 115.4 100 27.8
2026-06-16 00:00 UT 08 24 56.8 +21 20 06 0.478 0.711 39.0 116.0 101 27.8
2026-06-17 00:00 UT 08 30 09.0 +20 44 51 0.465 0.719 39.3 116.5 102 27.8
2026-06-18 00:00 UT 08 35 26.0 +20 07 29 0.452 0.728 39.7 116.9 103 27.8
2026-06-19 00:00 UT 08 40 48.5 +19 27 53 0.440 0.736 40.1 117.2 104 27.8
2026-06-20 00:00 UT 08 46 16.9 +18 45 56 0.428 0.745 40.6 117.5 104 27.8
Terminology:
delta: distance between minor planet and earth in AU
radius: distance between minor planet and sun in AU
magn: magnitude (brightness) estimate
ra: right ascension in hours (24h = 360deg)
dec: declination in degrees
elong: elongation in degrees (angle sun-earth-minor planet)
phase: phase angle in degrees (angle sun-minor planet-earth)
AU: Astronomical Unit (mean distance between earth and sun: 149597870.7 km
Orbital elements provided by the MPC (Minor Planet Center).
Calculations by a modified version of AAPlus, a C# implementation of the AA+ project by PJ Naughter from the algorithms presented in the book "Astronomical Algorithms" by Jean Meeus.
NGC2000 dso catalog and star labels from VizieR as provided by the Strasbourg astronomical Data Center.
Tycho2 catalog from the ESO archive.